Temp
80 80 80 80 80 81 80 80 81 81 80 81 81 81 81 83 84 83 84 82 82 82 82 81 81 81 83 81 79 79 79 79 79 79 80 80 80 81 84 82 81 79
80 81 81 81 80 81 80 81 80 80 80 80 81 81 81 84 83 84 83 82 82 83 82 82 81 81 81 81 80 79 78 80 78 84 80 80 81 81 82 82 82 80
80 80 81 80 82 82 83 83 82 81 82 82 83 83 83 85 83 83 83 84 82 83 82 82 82 81 81 81 80 80 80 79 79 82 80 80 80 80 81 84 83 83
80 81 82 82 82 82 83 82 81 81 83 82 82 85 86 88 83 83 82 84 82 82 83 82 82 83 81 81 80 79 80 79 80 80 80 81 81 81 81 81 82 82
81 81 82 83 82 81 81 82 83 82 82 83 84 82 83 81 82 83 82 82 82 82 82 82 82 82 81 80 80 80 80 80 80 80 79 79 80 81 83 82 80 82
81 80 81 82 82 81 83 82 82 83 83 83 84 84 84 82 84 84 83 82 83 83 83 83 82 82 83 81 80 80 81 81 81 79 79 78 79 81 85 83 80 80
83 81 82 83 84 83 83 82 82 83 85 84 84 84 85 83 82 83 84 83 84 82 83 82 81 81 81 81 80 79 80 79 80 80 79 79 79 80 82 82 79 80
84 84 83 82 84 83 83 84 83 82 84 84 84 84 85 86 83 84 84 84 85 83 82 82 81 81 82 81 80 79 80 84 82 78 79 79 78 79 79 81 81 78
84 85 84 83 84 85 85 86 86 85 83 85 84 85 85 86 86 86 82 83 84 82 82 81 81 82 82 81 80 80 80 81 82 79 78 79 79 79 80 80 80 79
76 77 81 83 85 85 85 87 88 87 85 85 87 86 86 84 85 86 84 80 83 82 82 82 81 82 82 82 80 81 80 80 80 79 80 80 80 80 80 79 79 78
77 78 79 79 80 83 86 88 88 88 88 87 87 87 87 86 82 84 83 82 83 82 81 82 82 81 81 83 82 82 81 82 81 80 79 80 80 80 82 80 80 80
73 75 76 75 77 75 76 76 80 86 88 88 88 87 85 87 86 84 85 82 82 83 81 81 81 81 81 82 84 83 81 82 82 82 81 80 81 81 81 81 81 80
75 75 76 76 76 75 78 78 78 78 82 88 89 89 89 87 88 86 83 84 83 83 84 81 81 81 80 80 82 82 82 81 82 82 82 82 81 81 83 82 82 82
76 75 75 75 75 75 75 77 79 80 79 80 86 89 89 90 88 88 86 85 84 84 84 83 82 82 81 81 81 82 82 82 82 82 83 83 83 83 83 83 83 83
74 75 75 75 75 75 76 77 79 80 79 79 80 85 91 91 90 89 88 86 85 84 84 85 85 84 84 83 82 81 83 82 81 83 83 82 82 84 84 84 85 86
74 74 74 75 75 74 75 76 79 78 80 80 80 80 81 84 88 87 88 87 86 85 85 86 86 87 83 79 80 83 82 85 84 81 81 82 81 81 83 83 86 87
74 74 74 74 74 74 74 75 76 79 79 79 80 80 79 79 82 87 88 87 88 87 85 87 89 89 79 72 73 76 84 82 82 81 79 79 80 79 80 82 84 85
73 75 75 75 75 74 74 74 75 75 75 75 76 78 78 80 81 83 86 86 88 88 87 87 88 82 74 70 71 71 76 84 83 83 83 81 80 81 81 81 82 84
72 72 73 73 74 75 75 75 74 74 75 75 77 78 79 78 77 80 81 82 85 84 87 88 87 78 72 70 69 70 70 78 85 84 83 83 82 81 81 81 81 81
71 71 72 72 73 74 75 75 75 74 75 76 76 76 76 77 80 80 79 77 79 80 81 85 85 81 71 69 67 67 68 72 85 85 84 84 83 83 84 82 80 80
71 70 71 72 72 73 74 74 75 75 75 75 76 76 76 76 76 77 78 79 80 80 81 83 88 78 70 67 65 64 66 69 82 85 85 84 84 83 82 83 81 81
71 70 71 72 72 73 73 74 75 75 75 75 75 75 75 76 76 77 77 78 78 78 78 79 83 72 67 67 64 62 63 71 77 80 83 84 84 83 82 80 80 80
70 70 70 71 72 72 72 73 73 74 74 76 75 75 76 76 76 77 77 78 77 78 78 78 80 74 68 60 59 61 63 71 74 77 79 81 83 83 82 82 82 81
71 70 71 71 72 72 72 72 73 74 74 76 75 75 75 76 76 76 77 77 77 77 78 78 79 77 67 62 61 60 65 72 73 75 77 78 80 82 82 81 82 86
73 73 73 73 73 73 74 73 73 73 74 75 75 75 75 75 76 75 76 76 78 78 77 77 79 76 68 65 63 62 64 70 72 74 75 77 79 81 82 82 82 83
73 73 72 72 72 73 74 73 74 74 74 75 75 75 75 75 76 76 76 77 79 79 81 79 77 77 74 64 60 61 60 68 69 70 72 74 77 79 80 80 81 81
MSLP
1018.38 1018.50 1018.78 1018.94 1019.14 1019.18 1019.38 1019.58 1019.62 1019.86 1019.94 1019.98 1020.22 1020.22 1020.26 1020.06 1019.86 1020.02 1020.06 1020.14 1020.18 1020.30 1020.34 1020.38 1020.34 1020.42 1020.42 1020.50 1020.54 1020.62 1020.78 1020.86 1020.86 1020.78 1020.82 1020.86 1020.94 1020.98 1021.06 1020.90 1020.82 1020.82
1018.38 1018.42 1018.54 1018.74 1018.94 1018.98 1019.18 1019.22 1019.46 1019.62 1019.78 1019.78 1019.82 1019.78 1019.74 1019.74 1019.74 1019.78 1019.98 1020.10 1020.10 1020.18 1020.14 1020.26 1020.30 1020.30 1020.42 1020.54 1020.54 1020.70 1020.86 1020.86 1020.98 1020.54 1020.86 1020.98 1020.90 1020.86 1020.90 1020.78 1020.82 1020.62
1018.30 1018.50 1018.58 1018.86 1018.94 1018.98 1019.06 1019.10 1019.22 1019.42 1019.54 1019.54 1019.50 1019.54 1019.62 1019.46 1019.54 1019.66 1019.74 1019.86 1020.06 1020.10 1020.10 1020.10 1020.22 1020.26 1020.30 1020.38 1020.42 1020.62 1020.78 1020.86 1020.98 1020.70 1020.78 1020.94 1020.78 1020.90 1020.78 1020.62 1020.54 1020.58
1018.14 1018.26 1018.46 1018.62 1018.70 1018.82 1018.82 1019.06 1019.18 1019.30 1019.26 1019.46 1019.54 1019.42 1019.38 1019.34 1019.38 1019.62 1019.78 1019.78 1019.98 1020.10 1020.06 1020.10 1020.18 1020.18 1020.22 1020.30 1020.34 1020.54 1020.58 1020.66 1020.62 1020.58 1020.78 1020.70 1020.66 1020.66 1020.70 1020.58 1020.58 1020.58
1017.86 1018.02 1018.18 1018.38 1018.46 1018.58 1018.70 1018.98 1019.14 1019.22 1019.26 1019.18 1019.18 1019.22 1019.30 1019.38 1019.54 1019.58 1019.74 1019.86 1019.86 1020.06 1020.06 1020.14 1020.10 1020.18 1020.18 1020.30 1020.34 1020.58 1020.58 1020.62 1020.46 1020.54 1020.74 1020.86 1020.62 1020.62 1020.54 1020.54 1020.66 1020.70
1017.58 1017.70 1017.86 1018.10 1018.26 1018.50 1018.74 1018.86 1018.86 1018.94 1019.06 1019.18 1019.10 1019.06 1019.18 1019.26 1019.42 1019.50 1019.66 1019.82 1019.86 1019.90 1020.06 1020.02 1020.10 1020.10 1020.10 1020.26 1020.38 1020.50 1020.54 1020.62 1020.46 1020.46 1020.66 1020.78 1020.66 1020.42 1020.42 1020.42 1020.58 1020.70
1017.54 1017.62 1017.78 1017.78 1017.98 1018.10 1018.38 1018.54 1018.62 1018.62 1018.66 1018.74 1018.78 1018.98 1018.94 1019.18 1019.38 1019.42 1019.42 1019.54 1019.70 1019.78 1019.94 1020.02 1020.06 1020.10 1020.06 1020.14 1020.38 1020.54 1020.46 1020.46 1020.42 1020.46 1020.62 1020.62 1020.58 1020.58 1020.34 1020.38 1020.50 1020.58
1017.26 1017.34 1017.50 1017.62 1017.78 1017.90 1018.06 1018.18 1018.26 1018.34 1018.30 1018.42 1018.74 1018.66 1018.66 1018.86 1019.02 1019.22 1019.26 1019.34 1019.54 1019.66 1019.70 1019.78 1019.86 1019.94 1019.98 1020.10 1020.38 1020.54 1020.54 1020.34 1020.42 1020.46 1020.62 1020.62 1020.58 1020.70 1020.46 1020.26 1020.30 1020.54
1016.90 1017.18 1017.34 1017.54 1017.74 1017.74 1017.86 1017.82 1017.86 1017.90 1017.94 1018.22 1018.38 1018.42 1018.34 1018.46 1018.66 1018.82 1019.06 1019.18 1019.34 1019.50 1019.58 1019.66 1019.70 1019.78 1019.78 1019.94 1020.18 1020.38 1020.50 1020.42 1020.22 1020.34 1020.50 1020.66 1020.70 1020.62 1020.46 1020.26 1020.34 1020.38
1016.98 1017.06 1017.26 1017.46 1017.66 1017.58 1017.70 1017.54 1017.46 1017.50 1017.58 1017.86 1017.98 1018.06 1018.26 1018.26 1018.26 1018.50 1018.74 1019.06 1019.26 1019.34 1019.46 1019.50 1019.58 1019.62 1019.62 1019.70 1019.90 1020.06 1020.26 1020.34 1020.26 1020.22 1020.22 1020.30 1020.34 1020.34 1020.26 1020.26 1020.34 1020.42
1017.54 1017.14 1017.10 1017.38 1017.74 1017.74 1017.58 1017.30 1017.18 1017.30 1017.30 1017.50 1017.66 1017.86 1017.90 1018.06 1018.26 1018.30 1018.58 1018.86 1019.14 1019.26 1019.34 1019.38 1019.38 1019.42 1019.54 1019.54 1019.54 1019.58 1019.78 1019.90 1019.98 1020.02 1020.06 1020.06 1019.98 1019.98 1019.94 1020.02 1020.10 1020.18
1018.30 1018.38 1018.18 1018.14 1018.02 1017.86 1017.70 1017.74 1017.66 1017.30 1017.02 1017.10 1017.26 1017.62 1017.70 1017.74 1018.02 1018.26 1018.46 1018.70 1018.78 1018.90 1019.02 1019.18 1019.14 1019.22 1019.30 1019.34 1019.34 1019.34 1019.50 1019.58 1019.62 1019.70 1019.74 1019.78 1019.78 1019.74 1019.70 1019.70 1019.86 1019.90
1018.34 1018.38 1018.30 1017.78 1017.26 1017.30 1017.26 1017.34 1017.42 1017.46 1017.42 1017.02 1016.70 1017.06 1017.34 1017.58 1017.62 1017.86 1017.98 1018.26 1018.46 1018.50 1018.70 1018.82 1018.94 1018.98 1019.06 1019.14 1019.18 1019.18 1019.26 1019.42 1019.50 1019.50 1019.46 1019.46 1019.46 1019.46 1019.42 1019.38 1019.42 1019.50
1017.98 1017.74 1017.46 1017.10 1016.94 1017.10 1017.22 1017.02 1017.10 1017.26 1017.30 1017.34 1016.98 1016.58 1016.74 1016.94 1017.22 1017.38 1017.50 1017.66 1017.90 1018.10 1018.14 1018.26 1018.50 1018.70 1018.82 1018.90 1018.98 1019.02 1019.14 1019.22 1019.26 1019.34 1019.38 1019.34 1019.22 1019.18 1019.14 1019.18 1019.14 1019.14
1017.66 1017.70 1017.42 1017.22 1017.14 1017.26 1017.30 1017.26 1017.18 1016.98 1017.02 1017.18 1017.14 1017.06 1016.42 1016.34 1016.46 1016.70 1017.06 1017.34 1017.34 1017.50 1017.70 1017.78 1018.06 1018.26 1018.34 1018.54 1018.78 1018.90 1018.86 1019.06 1019.14 1019.18 1019.22 1019.30 1019.26 1019.14 1019.02 1018.98 1018.94 1018.86
1017.46 1017.46 1017.42 1017.34 1017.34 1017.42 1017.42 1017.22 1017.14 1017.06 1016.82 1016.78 1016.86 1016.82 1016.78 1016.50 1016.26 1016.34 1016.58 1016.90 1017.14 1017.22 1017.30 1017.46 1017.62 1017.62 1017.70 1017.90 1018.10 1018.42 1018.62 1018.66 1018.78 1018.94 1019.02 1019.06 1019.18 1019.22 1019.10 1018.90 1018.78 1018.66
1017.46 1017.50 1017.42 1017.46 1017.46 1017.42 1017.42 1017.46 1017.22 1017.02 1016.86 1016.58 1016.38 1016.34 1016.42 1016.38 1016.54 1016.42 1016.38 1016.50 1016.74 1016.98 1017.22 1017.22 1017.18 1017.10 1017.18 1017.42 1017.66 1017.82 1018.06 1018.42 1018.62 1018.70 1018.74 1018.90 1018.94 1019.06 1019.14 1018.94 1018.70 1018.46
1017.50 1017.26 1017.34 1017.50 1017.62 1017.74 1017.66 1017.70 1017.74 1017.50 1017.22 1017.02 1016.74 1016.58 1016.38 1016.30 1016.42 1016.50 1016.26 1016.26 1016.42 1016.62 1016.86 1016.94 1016.90 1016.70 1016.86 1017.06 1017.22 1017.42 1017.58 1017.86 1018.10 1018.42 1018.54 1018.66 1018.70 1018.74 1018.70 1018.66 1018.62 1018.46
1017.74 1017.74 1017.70 1017.62 1017.54 1017.46 1017.50 1017.70 1017.78 1017.70 1017.46 1017.22 1017.10 1016.82 1016.74 1016.90 1016.90 1016.54 1016.42 1016.26 1016.26 1016.50 1016.66 1016.66 1016.70 1016.54 1016.70 1016.78 1016.90 1017.02 1017.18 1017.34 1017.54 1017.78 1018.06 1018.22 1018.34 1018.38 1018.42 1018.42 1018.42 1018.46
1017.86 1017.90 1018.02 1017.94 1017.62 1017.10 1016.94 1017.46 1017.94 1018.10 1017.70 1017.34 1017.06 1016.82 1016.94 1017.06 1016.98 1016.94 1016.62 1016.50 1016.46 1016.50 1016.50 1016.38 1016.38 1016.34 1016.54 1016.66 1016.78 1016.90 1016.94 1017.14 1017.14 1017.26 1017.46 1017.62 1017.74 1017.82 1017.94 1018.06 1018.14 1018.30
1018.34 1018.26 1018.14 1018.06 1017.94 1017.58 1017.02 1016.98 1017.58 1017.98 1017.90 1017.50 1017.26 1017.14 1017.10 1017.14 1017.18 1017.22 1017.06 1016.90 1016.74 1016.58 1016.58 1016.50 1016.22 1016.14 1016.34 1016.38 1016.54 1016.70 1016.78 1017.06 1016.98 1016.98 1017.10 1017.22 1017.18 1017.22 1017.34 1017.46 1017.58 1017.70
1018.30 1018.30 1018.26 1018.30 1018.22 1018.06 1017.94 1017.74 1017.70 1018.02 1018.02 1017.54 1017.34 1017.18 1017.02 1016.90 1016.90 1016.86 1016.94 1016.94 1016.78 1016.70 1016.74 1016.74 1016.34 1016.14 1016.42 1016.90 1017.10 1017.10 1017.38 1017.70 1017.42 1017.22 1017.14 1016.98 1016.94 1016.86 1016.90 1016.90 1017.02 1017.22
1018.14 1018.26 1018.34 1018.50 1018.50 1018.46 1018.38 1018.22 1018.10 1018.14 1018.02 1017.46 1017.42 1017.22 1017.18 1017.10 1017.02 1016.94 1016.78 1016.82 1016.86 1016.82 1016.94 1016.86 1016.58 1016.30 1016.26 1016.42 1016.70 1016.86 1017.06 1017.42 1017.66 1017.66 1017.38 1017.10 1016.74 1016.54 1016.46 1016.50 1016.54 1016.70
1018.54 1018.54 1018.70 1018.74 1018.62 1018.54 1018.38 1018.30 1018.18 1018.10 1017.98 1017.54 1017.50 1017.30 1017.18 1017.02 1016.90 1016.94 1016.86 1016.74 1016.82 1016.82 1016.78 1016.90 1016.70 1016.34 1016.38 1016.54 1016.70 1016.98 1017.02 1017.06 1017.02 1017.10 1017.26 1017.30 1017.06 1016.54 1016.26 1016.22 1016.18 1016.18
1018.82 1018.62 1018.38 1018.26 1018.22 1018.14 1018.06 1018.14 1018.06 1018.02 1017.74 1017.46 1017.34 1017.14 1017.06 1016.90 1016.82 1016.94 1016.90 1016.74 1016.66 1016.66 1016.58 1016.70 1016.62 1016.38 1016.26 1016.42 1016.58 1016.94 1017.38 1017.62 1017.62 1017.26 1016.94 1016.58 1016.42 1016.34 1016.14 1016.14 1016.02 1015.94
1018.82 1018.74 1018.46 1018.26 1018.10 1017.94 1017.86 1017.82 1017.66 1017.62 1017.54 1017.38 1017.14 1016.98 1016.98 1016.90 1016.86 1016.86 1016.90 1016.74 1016.50 1016.50 1016.50 1016.46 1016.58 1016.46 1016.34 1016.42 1016.58 1016.78 1017.14 1017.26 1017.62 1018.14 1018.26 1017.86 1017.10 1016.54 1016.18 1015.86 1015.90 1015.94
Wind_Speed
6 5 6 6 5 6 6 5 4 5 6 5 5 4 6 7 7 6 7 5 6 5 4 4 4 4 4 3 3 3 2 2 3 2 2 3 3 2 3 2 3 2
5 6 5 5 6 6 6 6 5 5 6 5 5 5 3 7 5 8 7 6 5 5 5 5 4 4 4 5 4 4 3 3 3 2 2 3 3 3 3 3 4 3
5 5 6 5 7 6 7 6 6 5 6 6 6 6 4 5 4 7 7 7 5 6 5 5 5 4 4 4 4 4 4 3 3 3 3 3 3 3 3 4 1 1
7 6 6 5 4 6 6 6 6 5 5 5 5 7 5 3 4 5 6 7 6 5 6 5 5 5 4 5 4 3 4 4 4 3 3 3 3 2 3 3 2 2
8 7 6 5 4 4 4 6 6 6 4 5 4 4 6 4 5 4 4 5 6 5 6 6 6 6 4 4 4 4 3 5 4 4 4 4 3 3 3 3 3 2
6 5 6 7 6 6 6 5 6 7 5 5 7 4 5 4 7 7 5 5 5 5 6 6 6 6 6 5 5 5 4 5 5 4 4 4 3 4 4 4 4 4
9 7 7 7 7 7 9 7 5 6 8 6 6 7 6 4 5 6 7 7 5 5 5 6 5 5 5 6 5 5 5 4 4 5 5 5 4 5 4 3 3 5
9 8 7 6 8 6 9 8 7 6 8 6 7 8 7 8 6 5 6 7 7 6 5 5 6 6 5 5 5 5 5 5 4 4 5 5 4 5 5 5 3 3
8 9 8 7 7 7 7 9 8 7 6 8 7 7 7 8 8 6 6 7 7 7 7 5 6 7 7 6 6 6 6 5 4 4 4 5 5 6 6 5 4 4
4 5 3 3 7 7 6 6 8 9 7 7 8 5 7 7 8 9 7 6 7 7 8 7 6 7 7 6 7 7 7 7 6 5 5 5 5 5 5 4 5 4
1 1 5 4 3 4 4 5 7 7 7 8 7 7 6 6 6 7 8 7 7 7 7 8 7 7 7 7 6 7 8 8 7 6 5 6 7 6 6 6 6 6
5 6 7 9 5 1 1 4 8 5 7 9 8 7 5 7 8 7 7 8 8 7 6 6 6 6 7 7 7 6 7 8 8 8 7 6 7 7 7 6 7 8
3 3 4 6 7 5 5 3 2 3 8 6 11 9 9 6 9 9 8 9 9 8 8 7 6 6 6 6 6 6 7 7 8 8 8 7 6 7 7 7 7 7
9 8 7 7 6 4 3 5 6 4 3 6 6 11 11 12 8 11 9 9 10 10 10 9 8 7 7 6 6 7 7 7 8 8 8 8 8 7 6 6 7 7
4 2 2 2 2 3 3 3 4 6 4 2 4 6 9 12 10 10 11 10 10 11 11 10 9 9 8 7 7 7 6 6 7 8 8 8 8 8 8 8 7 7
3 4 3 3 2 2 4 5 6 7 6 4 5 3 4 4 9 8 10 12 11 11 11 10 9 8 10 15 12 8 7 8 7 6 7 7 7 7 8 8 9 9
2 2 2 2 2 3 2 3 5 6 6 6 6 6 4 2 4 10 8 9 12 11 11 10 10 9 15 16 16 16 11 8 8 8 6 6 6 7 8 8 8 8
4 3 3 3 4 3 4 3 4 4 4 3 3 3 3 2 2 5 9 7 10 11 11 10 10 12 16 16 17 17 15 10 8 8 8 7 7 7 7 7 7 8
4 5 5 3 2 2 3 5 4 3 4 4 5 4 4 3 4 3 3 4 5 9 10 9 9 12 15 15 17 18 19 16 10 10 10 10 9 8 8 8 7 7
4 4 4 5 4 2 3 3 5 6 5 4 3 3 3 4 4 5 4 3 3 2 4 6 8 10 14 15 15 17 18 16 12 11 10 10 10 10 8 8 8 8
1 2 3 4 6 6 5 2 3 6 6 5 3 3 3 3 4 5 5 5 5 5 6 5 3 3 9 13 15 15 17 15 11 10 9 9 9 9 9 9 8 8
3 3 1 2 3 4 3 4 4 5 7 5 3 2 2 2 3 2 3 4 3 3 4 6 6 11 8 1 5 10 9 6 7 9 10 9 9 9 8 8 8 8
2 2 3 3 3 3 2 1 2 4 5 5 4 3 2 2 2 1 2 3 4 4 4 4 6 8 11 11 6 5 3 4 4 6 8 10 10 9 9 8 7 7
4 3 3 4 3 3 2 2 2 2 4 3 3 3 3 3 2 3 2 2 2 3 3 4 6 7 9 5 7 6 3 3 5 5 5 7 9 10 8 7 7 13
1 5 5 4 3 3 3 3 3 3 4 4 3 1 1 2 3 3 4 3 3 4 5 6 6 6 7 8 9 7 4 3 3 3 6 8 9 10 9 8 8 8
0 1 2 4 4 4 4 4 3 3 4 4 4 4 3 3 3 3 4 3 2 2 3 2 3 4 3 5 5 3 4 1 2 5 8 9 9 7 6 6 7 7
Wind_Direction
172 164 167 166 164 162 159 166 176 163 171 178 188 197 178 193 193 178 185 177 183 179 184 171 171 169 173 171 184 158 174 193 183 196 194 219 222 254 253 227 225 198
180 172 171 164 163 159 165 172 183 173 176 180 188 212 203 193 185 174 179 183 174 183 175 177 177 186 174 179 181 162 184 174 207 186 200 219 221 225 263 286 249 206
178 175 177 175 174 170 171 172 183 189 180 187 184 198 215 203 172 168 173 180 177 182 181 176 178 193 189 182 179 180 180 178 198 224 196 227 224 202 242 252 241 199
181 179 183 187 177 182 172 169 182 190 189 186 183 194 197 183 174 156 171 175 180 183 185 183 184 198 190 178 184 191 189 190 200 198 198 224 218 210 261 271 243 273
184 179 175 183 187 185 180 174 180 190 187 195 198 177 193 181 175 185 173 179 183 187 188 185 189 189 194 181 188 199 206 198 210 200 194 203 219 206 248 254 227 241
191 182 176 180 184 179 192 190 184 184 191 183 203 199 203 187 186 181 188 185 190 185 188 195 189 190 190 189 187 197 205 206 218 209 205 199 217 224 231 234 226 220
193 187 189 184 186 181 188 193 196 187 190 189 187 201 210 190 184 190 185 189 189 202 193 196 197 195 191 188 190 195 212 216 219 210 205 211 205 235 249 233 204 219
188 192 195 190 199 188 187 189 194 193 192 190 189 198 193 206 192 187 191 185 193 203 214 198 193 199 200 186 190 196 215 228 229 198 209 212 203 219 246 255 223 204
181 187 191 200 205 208 192 190 194 195 187 199 200 195 193 194 201 197 187 192 194 198 210 212 198 195 201 187 192 196 206 227 239 218 207 216 213 215 223 231 245 241
134 112 115 194 213 215 222 205 194 195 189 198 204 199 193 196 195 200 197 192 201 198 203 214 203 202 197 191 190 194 200 208 225 236 224 217 216 213 216 216 224 232
324 200 166 137 52 349 274 231 210 199 199 200 200 208 201 193 193 198 197 200 204 203 202 210 207 200 201 202 197 196 198 202 212 224 225 224 221 219 217 216 224 228
30 355 24 42 19 147 112 15 342 299 207 195 204 207 210 200 195 188 198 203 206 208 205 212 212 201 200 208 208 197 197 204 206 218 225 219 224 224 221 215 219 227
105 135 140 165 196 198 185 174 203 330 322 244 194 204 212 212 201 197 191 196 205 204 207 204 207 211 205 208 215 211 202 201 210 214 221 228 220 220 225 223 222 222
171 175 173 182 185 163 173 179 189 232 252 327 279 205 203 213 202 201 197 193 197 202 207 203 199 203 210 210 213 212 208 213 213 215 220 226 232 231 226 223 223 228
146 120 147 193 174 152 193 210 216 204 202 261 328 290 223 208 215 197 200 200 198 198 202 203 202 206 203 203 208 216 216 218 221 223 222 223 227 230 230 233 235 236
155 162 194 228 246 226 212 209 215 211 208 207 239 253 304 269 226 208 198 203 202 201 201 201 204 206 206 203 201 206 216 226 226 225 228 227 225 228 232 229 232 232
80 111 158 211 266 265 271 246 225 226 227 220 212 223 230 273 269 235 215 202 205 203 201 205 208 208 202 202 205 207 209 215 224 233 228 229 227 222 226 231 234 233
36 67 62 29 354 328 324 334 317 293 287 291 280 260 238 255 285 253 237 206 201 205 207 209 212 211 202 201 205 209 209 213 218 224 233 234 235 232 229 228 233 236
32 25 26 40 39 5 336 319 312 305 281 283 290 303 331 323 296 289 273 248 201 196 211 213 217 215 210 207 209 209 210 212 216 219 222 228 232 234 235 234 233 239
31 35 8 345 324 58 66 355 315 293 283 288 307 334 335 318 305 293 318 346 338 282 214 205 208 214 215 218 219 216 215 210 220 218 219 223 225 228 230 230 229 231
344 71 32 346 334 341 6 29 309 290 291 289 290 292 298 308 337 342 342 340 335 339 338 318 274 207 207 223 223 222 224 214 224 225 225 226 227 226 227 228 226 225
345 344 32 321 310 322 339 354 355 323 301 290 279 275 272 280 311 319 320 325 328 334 330 311 306 319 334 340 247 266 265 261 247 237 234 235 232 228 224 223 222 222
3 330 319 308 296 294 309 347 330 302 308 308 297 298 314 320 310 325 345 330 321 327 326 318 313 318 331 2 60 164 191 222 263 271 263 250 242 237 234 229 225 216
237 251 238 246 243 254 271 268 252 262 270 294 306 326 333 340 333 313 288 270 288 294 289 291 295 302 318 352 7 59 132 187 189 194 236 264 270 263 251 243 237 238
188 214 250 247 246 241 235 252 257 249 258 263 260 257 269 291 296 292 293 289 280 279 275 272 275 286 293 309 318 349 43 345 307 254 238 233 236 247 250 253 250 249
141 328 286 292 288 266 225 226 232 247 247 245 233 212 212 224 245 244 259 267 259 265 291 331 328 308 307 293 312 337 118 163 219 287 297 298 292 279 266 248 248 254